Location: Napier
(39.4830°S, 176.9170°E)
Time: 15:46:11
(UTC+13:00)

Cosmos 2237 Rocket - Pass Details

Date: 24 January 2019
Orbit: 833 x 851 km, 71.0° (Epoch: 18 February)

Event Time Altitude Azimuth Distance (km) Brightness Sun altitude
Exits shadow 23:50:51 35° 109° (ESE) 1,340 3.1 -27.4°
Drops below altitude 10° 23:54:45 10° 143° (SE) 2,488 5.0 -27.7°
Sets 23:57:19 0° 149° (SSE) 3,427 5.8 -27.9°
